CDT,Max TemperatureF,Mean TemperatureF,Min TemperatureF,Max Dew PointF,MeanDew PointF,Min DewpointF,Max Humidity, Mean Humidity, Min Humidity, Max Sea Level PressureIn, Mean Sea Level PressureIn, Min Sea Level PressureIn, Max VisibilityMiles, Mean VisibilityMiles, Min VisibilityMiles, Max Wind SpeedMPH, Mean Wind SpeedMPH, Max Gust SpeedMPH,PrecipitationIn, CloudCover, Events, WindDirDegrees
2012-10-1,66,55,45,49,45,42,93,68,43,29.94,29.88,29.81,10,9,4,13,6,16,0.00,0,,47
2012-10-2,72,62,52,55,48,39,89,63,34,29.90,29.84,29.80,10,10,5,18,7,24,0.00,4,Rain,36
2012-10-3,63,60,57,59,57,55,94,90,80,30.06,29.97,29.88,10,6,1,13,4,17,0.05,8,Rain,162
2012-10-4,80,66,51,59,53,48,90,73,40,30.16,30.08,30.02,10,10,5,22,9,30,0.33,5,Rain,227
2012-10-5,49,45,38,47,38,31,87,76,57,30.20,30.15,30.11,10,10,10,10,6,,0.04,7,Rain,268
2012-10-6,50,40,31,32,30,27,88,66,43,30.20,30.16,30.10,10,10,10,13,7,20,0.00,4,,279
2012-10-7,51,42,32,32,28,21,86,61,33,30.21,30.18,30.15,10,10,10,13,5,22,0.00,3,,267
2012-10-8,58,44,28,33,29,24,87,59,33,30.20,30.14,30.06,10,10,10,16,7,24,0.00,0,,185
2012-10-9,65,52,39,42,38,33,89,61,37,30.06,29.96,29.85,10,10,7,23,13,32,0.04,2,Rain,201
2012-10-10,52,42,32,40,32,24,93,69,36,30.21,30.11,29.96,10,10,7,25,8,29,0.07,2,Rain,266
2012-10-11,64,48,31,43,33,27,88,57,30,30.24,30.17,30.09,10,10,10,24,9,31,0.00,0,Rain,206
2012-10-12,56,48,41,38,31,24,72,53,30,30.44,30.35,30.25,10,10,7,16,7,24,0.00,1,,59
2012-10-13,67,56,43,63,48,28,94,76,53,30.28,30.03,29.83,10,8,2,17,9,25,0.46,7,Rain,166
2012-10-14,72,60,50,62,56,46,91,81,60,29.83,29.67,29.49,10,9,2,33,18,51,0.40,8,Rain,213
2012-10-15,60,50,40,45,40,35,93,72,41,29.98,29.92,29.82,10,10,7,13,8,20,0.00,2,,287
2012-10-16,70,54,37,52,43,35,95,67,42,29.99,29.80,29.61,10,10,10,21,8,28,0.00,1,,144
2012-10-17,69,62,53,58,52,47,94,77,57,29.63,29.52,29.33,10,9,2,28,14,36,0.75,4,Rain,180
2012-10-18,55,48,42,50,41,34,87,75,50,29.57,29.49,29.40,10,10,10,21,13,30,0.06,6,Rain,215
2012-10-19,50,47,44,46,43,41,93,88,80,29.68,29.54,29.45,10,9,2,14,8,16,0.20,8,Rain,234
2012-10-20,56,47,38,45,41,37,96,84,55,29.96,29.84,29.68,10,8,0,13,7,16,0.00,4,Fog,254
2012-10-21,70,52,35,49,44,34,97,75,45,30.06,30.01,29.96,10,9,5,14,5,20,0.00,0,,131
2012-10-22,66,58,50,61,55,46,91,84,67,30.03,29.96,29.91,10,10,3,20,7,30,0.43,6,Rain,151
2012-10-23,69,63,57,61,58,54,94,84,73,29.97,29.94,29.91,10,10,7,14,6,20,0.06,7,Rain,169
2012-10-24,63,62,60,58,57,56,88,82,80,29.96,29.95,29.94,10,10,10,12,7,16,0.00,3,,184
2012-10-25,75,60,44,62,51,41,96,82,63,30.06,29.89,29.74,10,9,3,25,17,33,0.32,8,Rain,261
2012-10-26,50,44,38,40,33,27,85,67,42,30.33,30.26,30.10,10,10,10,15,10,23,0.00,2,,341
2012-10-27,50,43,36,35,32,30,81,69,50,30.30,30.27,30.22,10,10,10,15,8,21,0.00,1,,352
2012-10-28,50,42,36,36,32,30,86,68,47,30.27,30.24,30.21,10,10,10,18,8,26,0.00,4,,354
2012-10-29,52,43,35,36,32,25,93,66,40,30.26,30.19,30.02,10,10,10,18,11,31,0.00,1,,343
2012-10-30,46,42,37,30,28,25,73,58,48,30.01,29.84,29.77,10,10,10,18,12,30,0.00,3,,324
2012-10-31,48,40,31,32,28,24,78,65,52,29.87,29.83,29.79,10,10,10,16,9,23,0.00,3,,298